map of MCZ home
Great Circle Mapper logo
MCZ - Airport
Location
City:  Maceió, Alagoas, Brazil
Name:Zumbi dos Palmares
Old (Alt.):Campo dos Palmares
ICAO / IATA:SBMO / MCZ

Details
Type:Airport (Aerodrome, Airfield)
Use:Public/Civil
Latitude:9°30'39"S (-9.510807)
Longitude:35°47'30"W (-35.791677)
Datum:WGS 1984
Elevation:387 ft (118 m)
Variation:22.64°W (WMM2015 magnetic declination)
0.02° annual change
Runways:1
Longest:8537 × 148 ft (2602 × 45 m), paved

Time
Time Zone:UTC-3
Local Time:

Weather
METAR:SBMO 030200Z 00000KT 9999 FEW020 SCT070 20/18 Q1019
TAF:SBMO 022100Z 0300/0324 17004KT 9999 SCT020 TN18/0308Z TX27/0315Z
BECMG 0302/0305 30004KT
TEMPO 0306/0312 5000 SHRA SCT010 BKN018
BECMG 0310/0312 13011KT
BECMG 0320/0322 14004KT
RMK PDU

Related Locations
Nearby:
Farthest:GUM: 12154 mi / 19560 km
Agana [Guam Intl (Antonio B. Won Pat Intl)], GU, US

Find:

   beyond  
but within

Other Information
Maps:
NOTAMs:
Links:
Sources:

  
flag of Brazil
flag of Alagoas
  

Sectional Chart

Flight Planning
at skyvector.com

Satellite Image

Google Maps Satellite view

 

Copyright © 2004-2015 Karl L. Swartz. All rights reserved.
The Great Circle Mapper name and logo are trademarks of the Great Circle Mapper.
All other trademarks mentioned herein belong to their respective owners.
Please see credits for attibutions and further copyright information.

  Follow gcmap on Facebook Follow gcmap on Twitter Follow gcmap on Google+

hCard Microformat

Geo Microformat